• In Netherlands
  • List of Countries
  • For 7 days
  • Water Temperature
  • Satellite Maps
  • Weather Map
  • Weather Widgets
  • user-avatar
    Login

    Hourly Weather Idzhewan

    Today, 23 January, Monday

    Time Temperature Precipitation Wind Pressure Humidity
    00:00 -3°C° 0 mm 1 mps 699 mmHg 87%
    01:00 -4°C° 0 mm 1 mps 699 mmHg 87%
    02:00 -4°C° 0 mm 1 mps 699 mmHg 87%
    03:00 -4°C° 0 mm 1 mps 699 mmHg 86%
    04:00 -6°C° 0 mm 1 mps 699 mmHg 87%
    05:00 -6°C° 0 mm 1 mps 699 mmHg 88%
    06:00 -7°C° 0 mm 1 mps 699 mmHg 89%
    07:00 -4°C° 0 mm 1 mps 700 mmHg 86%
    08:00 -2°C° 0 mm 1 mps 700 mmHg 83%
    09:00 -1°C° 0 mm 1 mps 701 mmHg 80%
    10:00 +1°C° 0 mm 1 mps 701 mmHg 77%
    11:00 +2°C° 0 mm 1 mps 700 mmHg 73%
    12:00 +4°C° 0 mm 1 mps 700 mmHg 70%
    13:00 +4°C° 0 mm 1 mps 700 mmHg 71%
    14:00 +4°C° 0 mm 1 mps 699 mmHg 71%
    15:00 +4°C° 0 mm 1 mps 699 mmHg 72%
    16:00 +1°C° 0 mm 1 mps 699 mmHg 77%
    17:00 -2°C° 0 mm 1 mps 698 mmHg 83%
    18:00 -6°C° 0 mm 1 mps 698 mmHg 88%
    19:00 -6°C° 0 mm 1 mps 698 mmHg 88%
    20:00 -6°C° 0 mm 1 mps 699 mmHg 88%
    21:00 -6°C° 0 mm 1 mps 699 mmHg 88%
    22:00 -6°C° 0 mm 1 mps 699 mmHg 88%
    23:00 -6°C° 0 mm 1 mps 699 mmHg 88%

    Tomorrow, 24 January, Tuesday

    Time Temperature Precipitation Wind Pressure Humidity
    00:00 -7°C° 0 mm 1 mps 699 mmHg 89%
    01:00 -7°C° 0 mm 1 mps 699 mmHg 89%
    02:00 -7°C° 0 mm 1 mps 699 mmHg 89%
    03:00 -7°C° 0 mm 1 mps 700 mmHg 89%
    04:00 -7°C° 0 mm 1 mps 700 mmHg 88%
    05:00 -6°C° 0 mm 1 mps 700 mmHg 88%
    06:00 -6°C° 0 mm 1 mps 700 mmHg 87%
    07:00 -3°C° 0 mm 1 mps 700 mmHg 84%
    08:00 -2°C° 0 mm 1 mps 701 mmHg 81%
    09:00 0°C° 0 mm 1 mps 701 mmHg 77%
    10:00 +1°C° 0 mm 1 mps 701 mmHg 75%
    11:00 +3°C° 0 mm 1 mps 700 mmHg 73%
    12:00 +4°C° 0 mm 1 mps 700 mmHg 71%
    13:00 +5°C° 0 mm 1 mps 699 mmHg 72%
    14:00 +5°C° 0 mm 1 mps 699 mmHg 74%
    15:00 +5°C° 0 mm 1 mps 698 mmHg 75%
    16:00 +2°C° 0 mm 1 mps 698 mmHg 81%
    17:00 0°C° 0 mm 1 mps 698 mmHg 86%
    18:00 -3°C° 0 mm 1 mps 697 mmHg 92%
    19:00 -3°C° 0 mm 1 mps 698 mmHg 90%
    20:00 -3°C° 0 mm 1 mps 698 mmHg 88%
    21:00 -5°C° 0 mm 2 mps 698 mmHg 86%
    22:00 -5°C° 0 mm 2 mps 697 mmHg 84%
    23:00 -5°C° 0 mm 2 mps 697 mmHg 83%

    Day after tomorrow, 25 January, Wednesday

    Time Temperature Precipitation Wind Pressure Humidity
    00:00 -5°C° 0 mm 2 mps 697 mmHg 81%
    01:00 -5°C° 0 mm 2 mps 696 mmHg 80%
    02:00 -5°C° 0 mm 2 mps 696 mmHg 80%
    03:00 -5°C° 0 mm 2 mps 695 mmHg 79%
    04:00 -5°C° 0 mm 2 mps 695 mmHg 79%
    05:00 -5°C° 0 mm 2 mps 695 mmHg 79%
    06:00 -5°C° 0 mm 2 mps 694 mmHg 78%
    07:00 -3°C° 0 mm 2 mps 694 mmHg 77%
    08:00 -2°C° 0 mm 2 mps 694 mmHg 75%
    09:00 -1°C° 0 mm 2 mps 694 mmHg 73%
    10:00 +1°C° 0 mm 2 mps 693 mmHg 71%
    11:00 +3°C° 0 mm 2 mps 693 mmHg 68%
    12:00 +5°C° 0 mm 2 mps 692 mmHg 65%
    13:00 +5°C° 0 mm 2 mps 692 mmHg 66%
    14:00 +5°C° 0 mm 2 mps 691 mmHg 67%
    15:00 +6°C° 0 mm 1 mps 690 mmHg 68%
    16:00 +4°C° 0 mm 1 mps 690 mmHg 71%
    17:00 +3°C° 0 mm 1 mps 690 mmHg 75%
    18:00 +1°C° 0 mm 1 mps 690 mmHg 78%
    19:00 +1°C° 0 mm 1 mps 690 mmHg 78%
    20:00 -1°C° 0 mm 2 mps 690 mmHg 79%
    21:00 -1°C° 0 mm 2 mps 690 mmHg 79%
    22:00 -1°C° 0 mm 2 mps 690 mmHg 80%
    23:00 -1°C° 0 mm 2 mps 690 mmHg 81%

    26 January, Thursday

    Time Temperature Precipitation Wind Pressure Humidity
    00:00 -1°C° 0 mm 2 mps 690 mmHg 82%
    01:00 -1°C° 0 mm 2 mps 689 mmHg 82%
    02:00 -1°C° 0 mm 2 mps 689 mmHg 82%
    03:00 -1°C° 0 mm 2 mps 689 mmHg 82%
    04:00 -1°C° 0 mm 2 mps 689 mmHg 83%
    05:00 -1°C° 0 mm 2 mps 689 mmHg 83%
    06:00 -1°C° 0 mm 2 mps 689 mmHg 84%
    07:00 +2°C° 0 mm 1 mps 689 mmHg 83%
    08:00 +2°C° 0 mm 1 mps 689 mmHg 82%
    09:00 +3°C° 0 mm 1 mps 689 mmHg 81%
    10:00 +3°C° 0.1 mm 2 mps 689 mmHg 79%
    11:00 +3°C° 0.1 mm 2 mps 688 mmHg 78%
    12:00 +4°C° 0.1 mm 2 mps 688 mmHg 76%
    13:00 +4°C° 0.1 mm 2 mps 688 mmHg 77%
    14:00 +5°C° 0.1 mm 1 mps 688 mmHg 78%
    15:00 +5°C° 0.1 mm 1 mps 687 mmHg 79%
    16:00 +4°C° 0.1 mm 1 mps 688 mmHg 83%
    17:00 +3°C° 0.1 mm 1 mps 688 mmHg 87%
    18:00 +1°C° 0.1 mm 1 mps 688 mmHg 91%
    19:00 +1°C° 0.2 mm 1 mps 689 mmHg 91%
    20:00 +1°C° 0.2 mm 1 mps 689 mmHg 91%
    21:00 +1°C° 0.2 mm 1 mps 689 mmHg 91%
    22:00 +1°C° 0.3 mm 1 mps 690 mmHg 91%
    23:00 +1°C° 0.3 mm 1 mps 690 mmHg 91%

    27 January, Friday

    Time Temperature Precipitation Wind Pressure Humidity
    00:00 0°C° 0.3 mm 1 mps 690 mmHg 90%
    01:00 0°C° 0.3 mm 1 mps 690 mmHg 90%
    02:00 0°C° 0.3 mm 1 mps 690 mmHg 90%
    03:00 0°C° 0.3 mm 1 mps 690 mmHg 90%
    04:00 0°C° 0.3 mm 1 mps 691 mmHg 89%
    05:00 -1°C° 0.3 mm 1 mps 691 mmHg 89%
    06:00 -1°C° 0.3 mm 1 mps 691 mmHg 89%
    07:00 -1°C° 0.3 mm 1 mps 692 mmHg 87%
    08:00 -1°C° 0.3 mm 1 mps 692 mmHg 86%
    09:00 0°C° 0.3 mm 1 mps 693 mmHg 84%
    10:00 0°C° 0.3 mm 1 mps 692 mmHg 83%
    11:00 0°C° 0.3 mm 1 mps 692 mmHg 82%
    12:00 0°C° 0.3 mm 1 mps 692 mmHg 81%
    13:00 0°C° 0.2 mm 1 mps 692 mmHg 81%
    14:00 0°C° 0.2 mm 1 mps 691 mmHg 82%
    15:00 0°C° 0.2 mm 1 mps 691 mmHg 82%
    16:00 0°C° 0.2 mm 1 mps 691 mmHg 85%
    17:00 -1°C° 0.2 mm 1 mps 691 mmHg 88%
    18:00 -2°C° 0.2 mm 1 mps 692 mmHg 91%
    19:00 -2°C° 0.4 mm 1 mps 692 mmHg 93%
    20:00 -2°C° 0.4 mm 1 mps 692 mmHg 94%
    21:00 -2°C° 0.4 mm 1 mps 692 mmHg 95%
    22:00 -3°C° 0.4 mm 1 mps 692 mmHg 96%
    23:00 -3°C° 0.4 mm 1 mps 692 mmHg 96%

    28 January, Saturday

    Time Temperature Precipitation Wind Pressure Humidity
    00:00 -3°C° 0.4 mm 1 mps 692 mmHg 97%
    01:00 -3°C° 0.2 mm 1 mps 692 mmHg 97%
    02:00 -3°C° 0.2 mm 1 mps 692 mmHg 97%
    03:00 -3°C° 0.2 mm 1 mps 692 mmHg 97%
    04:00 -3°C° 0.3 mm 1 mps 692 mmHg 97%
    05:00 -3°C° 0.3 mm 1 mps 692 mmHg 97%
    06:00 -3°C° 0.3 mm 1 mps 692 mmHg 97%
    07:00 -3°C° 0.3 mm 1 mps 692 mmHg 96%
    08:00 -3°C° 0.3 mm 1 mps 692 mmHg 95%
    09:00 -2°C° 0.3 mm 1 mps 692 mmHg 94%
    10:00 -2°C° 0.3 mm 1 mps 692 mmHg 94%
    11:00 -3°C° 0.3 mm 2 mps 692 mmHg 93%
    12:00 -2°C° 0.3 mm 2 mps 691 mmHg 92%
    13:00 -2°C° 0.3 mm 2 mps 691 mmHg 93%
    14:00 -2°C° 0.3 mm 2 mps 691 mmHg 93%
    15:00 -2°C° 0.3 mm 2 mps 691 mmHg 93%
    16:00 -3°C° 0.2 mm 2 mps 691 mmHg 95%
    17:00 -2°C° 0.2 mm 1 mps 691 mmHg 96%
    18:00 -2°C° 0.2 mm 1 mps 691 mmHg 98%
    19:00 -2°C° 0.2 mm 1 mps 692 mmHg 98%
    20:00 -2°C° 0.2 mm 1 mps 692 mmHg 98%
    21:00 -3°C° 0.2 mm 1 mps 692 mmHg 98%
    22:00 -3°C° 0.2 mm 1 mps 692 mmHg 98%
    23:00 -3°C° 0.2 mm 1 mps 692 mmHg 98%
    Show more